EW4025 Weather Reports


Display with metric or nautical units.
time (UTC)temp
F
wind
direction
speed
MPH
gust
MPH
rain 1hr
in
rain 24hr
in
rain mn
in
humidity
%
barometer
mb
20210622155521 58 37 2.0 5.0 0.12 1.06 0.21 95 1016.1
20210622155118 58 38 1.0 4.0 0.16 1.06 0.21 95 1016.1
20210622155028 58 38 2.0 4.0 0.16 1.06 0.21 95 1016.1
20210622154636 58 46 1.0 4.0 0.20 1.06 0.21 95 1016.1
20210622154532 58 46 1.0 4.0 0.24 1.06 0.21 95 1016.1
20210622154131 58 31 2.0 4.0 0.24 1.06 0.21 95 1016.1
20210622154022 58 30 2.0 4.0 0.24 1.06 0.21 95 1016.1
20210622153618 57 31 2.0 4.0 0.28 1.06 0.21 95 1016.1
20210622153528 57 31 2.0 5.0 0.28 1.06 0.21 95 1016.0
20210622153134 57 62 1.0 5.0 0.31 1.06 0.21 95 1016.0
20210622153031 57 62 0.0 5.0 0.31 1.06 0.21 95 1016.0
20210622152628 57 42 2.0 5.0 0.31 1.06 0.21 94 1016.1
20210622152518 57 42 2.0 5.0 0.35 1.06 0.21 94 1016.1
20210622152117 57 49 2.0 5.0 0.31 1.02 0.20 94 1016.1
20210622152027 57 49 3.0 5.0 0.31 1.02 0.20 94 1016.1
20210622151633 57 44 2.0 5.0 0.31 1.02 0.20 94 1016.1
20210622151528 57 54 3.0 5.0 0.31 1.02 0.20 94 1016.0
20210622151128 57 45 2.0 5.0 0.31 1.02 0.20 94 1016.0
20210622151019 57 29 1.0 5.0 0.31 1.02 0.20 94 1016.1
20210622150616 57 42 3.0 5.0 0.28 0.98 0.20 94 1016.0
20210622150526 57 48 4.0 5.0 0.28 0.98 0.20 94 1016.0
20210622150135 57 37 3.0 9.0 0.28 0.98 0.20 94 1016.0
20210622150030 57 52 2.0 9.0 0.24 0.94 0.19 94 1016.0
20210622145631 58 54 4.0 9.0 0.24 0.94 0.19 93 1016.0
20210622145521 58 23 5.0 9.0 0.24 0.94 0.19 93 1016.0
20210622145118 58 38 2.0 9.0 0.20 0.91 0.18 93 1016.0
20210622145028 58 8 2.0 9.0 0.20 0.91 0.18 93 1015.9
20210622144633 58 44 4.0 9.0 0.16 0.87 0.17 93 1015.9
20210622144529 58 61 4.0 9.0 0.12 0.83 0.17 93 1015.9
20210622144127 58 33 2.0 6.0 0.12 0.83 0.17 93 1015.9
20210622144018 58 27 3.0 6.0 0.08 0.79 0.16 93 1015.9
20210622143617 58 36 3.0 6.0 0.08 0.79 0.16 93 1015.8
20210622143528 58 42 2.0 6.0 0.08 0.79 0.16 93 1015.8
20210622143135 58 52 3.0 7.0 0.04 0.75 0.15 93 1015.8
20210622143031 58 52 3.0 7.0 0.04 0.75 0.15 92 1015.8
20210622142630 58 56 3.0 7.0 0.04 0.75 0.15 92 1015.8
20210622142520 58 45 3.0 6.0 0.00 0.71 0.14 92 1015.8
20210622142116 58 54 3.0 6.0 0.00 0.71 0.14 92 1015.8
20210622142026 58 75 3.0 8.0 0.00 0.71 0.14 92 1015.7
20210622141632 58 6 4.0 8.0 0.00 0.71 0.14 92 1015.6
20210622141528 58 65 3.0 8.0 0.00 0.71 0.14 92 1015.6
20210622141129 58 29 3.0 9.0 0.00 0.71 0.14 92 1015.6
20210622141020 58 24 3.0 9.0 0.04 0.71 0.14 92 1015.6
20210622140616 58 25 4.0 7.0 0.04 0.71 0.14 92 1015.6
20210622140526 58 14 3.0 7.0 0.04 0.71 0.14 92 1015.6
20210622140132 58 23 4.0 7.0 0.04 0.71 0.14 92 1015.6
20210622140028 58 39 4.0 7.0 0.08 0.71 0.14 92 1015.6
20210622135627 58 104 3.0 8.0 0.08 0.71 0.14 93 1015.5
20210622135517 58 44 3.0 7.0 0.08 0.71 0.14 93 1015.5
20210622135117 58 46 3.0 7.0 0.08 0.71 0.14 93 1015.5
20210622135027 58 6 2.0 8.0 0.08 0.71 0.14 93 1015.5
20210622134634 58 53 3.0 9.0 0.08 0.71 0.14 93 1015.5
20210622134529 58 69 3.0 9.0 0.08 0.71 0.14 93 1015.5
20210622134128 58 57 4.0 9.0 0.08 0.71 0.14 92 1015.5
20210622134018 58 50 4.0 9.0 0.08 0.71 0.14 92 1015.4
20210622133616 58 50 3.0 9.0 0.08 0.71 0.14 93 1015.5
20210622133526 58 54 4.0 9.0 0.08 0.71 0.14 93 1015.5
20210622133133 58 41 3.0 9.0 0.08 0.71 0.14 92 1015.5
20210622133029 58 80 3.0 13.0 0.08 0.71 0.14 92 1015.5
20210622132628 58 44 4.0 13.0 0.12 0.71 0.14 92 1015.5
20210622132523 58 64 4.0 13.0 0.12 0.71 0.14 92 1015.5
20210622132119 58 58 3.0 9.0 0.12 0.71 0.14 93 1015.5
20210622132033 58 38 3.0 9.0 0.12 0.71 0.14 93 1015.5
20210622131635 58 56 3.0 6.0 0.12 0.71 0.14 93 1015.5
20210622131516 58 52 3.0 8.0 0.12 0.71 0.14 93 1015.5
20210622131128 58 25 2.0 8.0 0.16 0.71 0.14 93 1015.3
20210622131022 58 32 2.0 8.0 0.12 0.67 0.13 93 1015.3
20210622130617 58 52 4.0 6.0 0.16 0.67 0.13 93 1015.3
20210622130531 58 8 4.0 8.0 0.16 0.67 0.13 93 1015.2
20210622130134 58 56 3.0 10.0 0.12 0.63 0.13 92 1015.3
20210622130013 58 64 3.0 10.0 0.12 0.63 0.13 92 1015.2
20210622125627 58 69 5.0 10.0 0.12 0.63 0.13 92 1015.2
20210622125521 58 48 4.0 10.0 0.12 0.63 0.13 92 1015.2
20210622125119 58 48 4.0 10.0 0.16 0.63 0.13 92 1015.1
20210622125029 58 71 5.0 10.0 0.16 0.63 0.13 92 1015.0
20210622124636 58 80 3.0 6.0 0.16 0.63 0.13 92 1015.0
20210622124532 58 51 3.0 6.0 0.16 0.63 0.13 92 1015.0
20210622124130 58 37 3.0 9.0 0.16 0.63 0.13 92 1015.0
20210622124019 58 39 2.0 9.0 0.16 0.63 0.13 92 1015.0
20210622123619 58 37 4.0 11.0 0.16 0.63 0.13 92 1015.1
20210622123527 58 60 4.0 11.0 0.16 0.63 0.13 92 1015.0
20210622123134 58 79 2.0 11.0 0.16 0.63 0.13 92 1015.1
20210622123030 58 94 3.0 11.0 0.16 0.63 0.13 92 1015.1
20210622122627 58 40 4.0 9.0 0.12 0.59 0.12 92 1015.2
20210622122517 58 53 2.0 9.0 0.12 0.59 0.12 91 1015.2
20210622122117 58 27 4.0 9.0 0.12 0.59 0.12 91 1015.2
20210622122026 58 43 2.0 8.0 0.12 0.59 0.12 91 1015.2
20210622121630 58 52 3.0 9.0 0.12 0.59 0.12 91 1015.2
20210622121526 58 75 3.0 9.0 0.12 0.59 0.12 91 1015.2
20210622121123 58 52 4.0 9.0 0.08 0.55 0.11 91 1015.2
20210622121014 58 55 4.0 9.0 0.08 0.55 0.11 91 1015.2
20210622120615 58 56 4.0 9.0 0.04 0.51 0.10 92 1015.3
20210622120525 58 71 3.0 8.0 0.04 0.51 0.10 91 1015.2
20210622120135 58 45 4.0 8.0 0.04 0.51 0.10 91 1015.2
20210622120030 58 45 3.0 6.0 0.04 0.51 0.10 91 1015.2
20210622115627 58 46 2.0 7.0 0.04 0.51 0.10 92 1015.3
20210622115518 58 54 2.0 7.0 0.04 0.51 0.10 92 1015.3
20210622115119 58 58 4.0 7.0 0.00 0.47 0.09 91 1015.3
20210622115029 58 55 3.0 9.0 0.00 0.47 0.09 91 1015.3
20210622114633 58 52 3.0 9.0 0.00 0.47 0.09 91 1015.3
20210622114529 58 54 3.0 9.0 0.00 0.47 0.09 91 1015.4
20210622114127 58 67 3.0 8.0 0.00 0.47 0.09 91 1015.4
20210622114017 57 58 4.0 8.0 0.00 0.47 0.09 92 1015.3
20210622113615 57 20 3.0 8.0 0.00 0.47 0.09 91 1015.3
20210622113526 57 61 3.0 8.0 0.00 0.47 0.09 91 1015.4
20210622113132 57 98 3.0 8.0 0.00 0.47 0.09 91 1015.3
20210622113027 57 44 4.0 8.0 0.00 0.47 0.09 91 1015.4
20210622112627 57 47 2.0 9.0 0.00 0.47 0.09 91 1015.4
20210622112517 57 61 2.0 9.0 0.00 0.47 0.09 91 1015.4
20210622112117 57 120 4.0 9.0 0.00 0.47 0.09 91 1015.4
20210622112027 57 12 4.0 9.0 0.00 0.47 0.09 91 1015.4
20210622111635 57 89 3.0 9.0 0.00 0.47 0.09 91 1015.3
20210622111532 57 48 2.0 9.0 0.04 0.47 0.09 91 1015.3
20210622111128 57 74 3.0 9.0 0.04 0.47 0.09 91 1015.3
20210622111019 57 75 4.0 9.0 0.04 0.47 0.09 91 1015.3
20210622110615 57 50 3.0 7.0 0.08 0.47 0.09 92 1015.3
20210622110525 57 50 3.0 7.0 0.08 0.47 0.09 91 1015.3
20210622110131 57 80 1.0 5.0 0.12 0.47 0.09 91 1015.3
20210622110027 57 44 2.0 5.0 0.12 0.47 0.09 91 1015.3
20210622105627 57 54 2.0 6.0 0.16 0.47 0.09 91 1015.3
20210622105517 57 52 2.0 8.0 0.16 0.47 0.09 91 1015.3
20210622105116 57 61 3.0 10.0 0.20 0.47 0.09 91 1015.3
20210622105027 57 19 2.0 10.0 0.20 0.47 0.09 91 1015.3
20210622104636 57 25 5.0 10.0 0.20 0.47 0.09 91 1015.3
20210622104532 57 57 3.0 10.0 0.20 0.47 0.09 91 1015.3
20210622104131 57 77 3.0 10.0 0.20 0.47 0.09 91 1015.3
20210622104022 57 54 3.0 10.0 0.20 0.47 0.09 91 1015.3
20210622103620 57 64 3.0 9.0 0.24 0.47 0.09 92 1015.3
20210622103530 57 59 4.0 9.0 0.24 0.47 0.09 92 1015.3
20210622103138 57 67 2.0 9.0 0.24 0.47 0.09 92 1015.3
20210622103013 57 104 2.0 9.0 0.24 0.47 0.09 92 1015.3
20210622102632 57 48 1.0 6.0 0.24 0.47 0.09 92 1015.2
20210622102522 57 35 1.0 6.0 0.24 0.47 0.09 92 1015.2
20210622102120 57 25 2.0 6.0 0.28 0.47 0.09 92 1015.1
20210622102014 57 6 3.0 6.0 0.28 0.47 0.09 92 1015.1
20210622101634 57 37 3.0 6.0 0.28 0.47 0.09 91 1015.1
20210622101514 57 42 3.0 6.0 0.28 0.43 0.09 91 1015.2
20210622101127 57 23 3.0 6.0 0.28 0.43 0.09 91 1015.2
20210622101022 57 4 3.0 6.0 0.28 0.43 0.09 91 1015.2
20210622100615 57 60 3.0 10.0 0.24 0.39 0.08 90 1015.2
20210622100530 57 71 2.0 10.0 0.24 0.39 0.08 90 1015.2
20210622100132 57 48 3.0 10.0 0.20 0.35 0.07 89 1015.2
20210622100031 57 50 4.0 10.0 0.20 0.35 0.07 89 1015.1
20210622095627 57 52 5.0 9.0 0.16 0.31 0.06 90 1015.2
20210622095522 57 152 5.0 9.0 0.16 0.31 0.06 90 1015.2
20210622095118 58 62 4.0 10.0 0.12 0.28 0.06 90 1015.1
20210622095031 58 60 3.0 11.0 0.12 0.28 0.06 90 1015.1
20210622094637 58 37 5.0 11.0 0.12 0.28 0.06 90 1015.0
20210622094516 58 22 4.0 11.0 0.12 0.28 0.06 90 1015.1
20210622094115 58 50 6.0 11.0 0.12 0.28 0.06 90 1015.1
20210622094026 58 48 5.0 11.0 0.12 0.28 0.06 89 1015.1
20210622093625 58 48 5.0 11.0 0.08 0.24 0.05 90 1015.1
20210622093515 58 59 4.0 11.0 0.08 0.24 0.05 90 1015.1
20210622093146 58 42 6.0 11.0 0.08 0.24 0.05 90 1015.0
20210622093022 58 59 4.0 11.0 0.08 0.24 0.05 90 1015.1
20210622092621 58 78 4.0 8.0 0.08 0.24 0.05 90 1015.0
20210622092531 58 48 4.0 9.0 0.08 0.24 0.05 90 1015.0
20210622092129 58 24 4.0 10.0 0.04 0.20 0.04 90 1015.0
20210622092019 58 44 3.0 10.0 0.04 0.20 0.04 90 1015.1
20210622091647 58 56 4.0 10.0 0.00 0.16 0.03 89 1015.1
20210622091523 58 50 3.0 10.0 0.00 0.16 0.03 88 1015.0
20210622091123 58 44 5.0 12.0 0.00 0.16 0.03 88 1014.9
20210622091013 58 111 6.0 12.0 0.00 0.16 0.03 87 1014.9
20210622090632 58 37 6.0 13.0 0.00 0.16 0.03 87 1014.9
20210622090522 58 25 6.0 13.0 0.00 0.16 0.03 87 1014.9
20210622090129 58 60 6.0 13.0 0.00 0.16 0.03 87 1014.9
20210622090025 58 73 6.0 13.0 0.00 0.20 0.03 88 1014.9
20210622085626 58 48 6.0 12.0 0.00 0.20 0.03 88 1014.9
20210622085516 58 50 6.0 12.0 0.00 0.20 0.03 88 1014.9
20210622085116 58 81 6.0 12.0 0.04 0.20 0.03 88 1014.9
20210622085026 58 44 6.0 13.0 0.04 0.20 0.03 88 1014.9
20210622084631 58 21 4.0 15.0 0.04 0.20 0.03 89 1014.9
20210622084527 58 313 5.0 15.0 0.04 0.20 0.03 89 1014.9
20210622084124 57 25 8.0 15.0 0.04 0.20 0.03 89 1014.8
20210622084014 57 84 8.0 15.0 0.04 0.20 0.03 89 1014.8
20210622083634 57 6 7.0 13.0 0.04 0.20 0.03 89 1014.8
20210622083524 57 46 5.0 13.0 0.04 0.20 0.03 90 1014.7
20210622083130 57 21 5.0 12.0 0.04 0.20 0.03 91 1014.8
20210622083026 57 67 4.0 11.0 0.04 0.20 0.03 91 1014.8
20210622082625 57 58 5.0 15.0 0.04 0.20 0.03 92 1014.8
20210622082515 57 77 7.0 15.0 0.04 0.20 0.03 92 1014.8
20210622082115 57 54 5.0 15.0 0.04 0.20 0.03 93 1014.8
20210622082025 57 25 4.0 15.0 0.04 0.20 0.03 93 1014.8
20210622081632 57 17 5.0 10.0 0.04 0.20 0.03 94 1014.8
20210622081527 57 80 6.0 10.0 0.04 0.20 0.03 94 1014.8
20210622081128 56 30 2.0 11.0 0.04 0.20 0.03 94 1014.9
20210622081018 56 29 3.0 11.0 0.04 0.20 0.03 94 1015.0
20210622080618 56 12 4.0 11.0 0.04 0.20 0.03 94 1014.9
20210622080527 56 115 6.0 11.0 0.04 0.20 0.03 93 1014.9
20210622080136 56 117 6.0 13.0 0.04 0.20 0.03 93 1014.9
20210622080032 56 75 5.0 13.0 0.04 0.35 0.03 93 1015.0
20210622075631 56 46 6.0 13.0 0.04 0.35 0.03 93 1015.0
20210622075521 56 76 5.0 10.0 0.04 0.35 0.03 93 1014.9
20210622075118 56 50 4.0 13.0 0.00 0.31 0.02 93 1015.0
20210622075029 56 66 4.0 13.0 0.00 0.31 0.02 93 1014.9
20210622074633 55 46 5.0 13.0 0.00 0.31 0.02 93 1014.9
20210622074529 55 60 6.0 13.0 0.00 0.31 0.02 93 1014.9
20210622074128 55 80 5.0 10.0 0.00 0.31 0.02 93 1014.9
20210622074018 55 104 5.0 10.0 0.00 0.31 0.02 93 1014.9
20210622073618 55 80 6.0 11.0 0.00 0.31 0.02 93 1014.9
20210622073527 55 88 6.0 11.0 0.00 0.31 0.02 94 1014.9
20210622073136 55 31 4.0 11.0 0.00 0.31 0.02 94 1014.8
20210622073031 55 67 6.0 11.0 0.00 0.31 0.02 94 1014.8
20210622072630 55 48 4.0 10.0 0.00 0.31 0.02 94 1014.8
20210622072521 55 79 4.0 10.0 0.00 0.31 0.02 94 1014.9
20210622072119 55 62 5.0 10.0 0.00 0.31 0.02 94 1014.8
20210622072029 55 73 4.0 10.0 0.00 0.31 0.02 94 1014.8
20210622071634 55 83 4.0 12.0 0.00 0.31 0.02 94 1014.8
20210622071529 55 75 4.0 12.0 0.00 0.31 0.02 94 1014.7
20210622071128 55 50 6.0 13.0 0.00 0.31 0.02 94 1014.6
20210622071022 55 53 4.0 13.0 0.00 0.31 0.02 94 1014.7
20210622070617 55 6 4.0 15.0 0.00 0.31 0.02 94 1014.7
20210622070532 55 52 4.0 15.0 0.00 0.31 0.02 94 1014.7
20210622070132 55 62 4.0 15.0 0.00 0.31 0.02 94 1014.6
20210622070034 55 58 4.0 15.0 0.00 0.31 0.02 94 1014.6
20210622065627 55 65 4.0 11.0 0.00 0.59 0.02 95 1014.4
20210622065522 55 60 3.0 11.0 0.00 0.59 0.02 95 1014.4
20210622065118 55 52 5.0 11.0 0.00 0.59 0.02 95 1014.4
20210622065032 55 57 5.0 11.0 0.00 0.59 0.02 95 1014.4
20210622064634 54 64 4.0 11.0 0.04 0.59 0.02 94 1014.4
20210622064514 54 44 5.0 12.0 0.04 0.59 0.02 94 1014.3
20210622064129 54 68 3.0 12.0 0.04 0.59 0.02 94 1014.3
20210622064022 54 42 4.0 12.0 0.04 0.59 0.02 94 1014.3
20210622063621 54 46 5.0 12.0 0.04 0.59 0.02 94 1014.2
20210622063532 54 114 5.0 12.0 0.04 0.59 0.02 94 1014.2
20210622063136 54 62 7.0 12.0 0.04 0.59 0.02 94 1014.2
20210622063033 54 53 6.0 12.0 0.04 0.59 0.02 94 1014.2
20210622062632 54 37 5.0 10.0 0.08 0.59 0.02 94 1014.1
20210622062522 54 27 5.0 10.0 0.08 0.59 0.02 94 1014.1
20210622062122 54 56 5.0 10.0 0.08 0.59 0.02 94 1014.1
20210622062033 54 89 4.0 13.0 0.08 0.59 0.02 94 1014.1
20210622061638 54 80 5.0 13.0 0.12 0.59 0.02 94 1014.1
20210622061514 54 21 5.0 13.0 0.12 0.59 0.02 94 1014.1
20210622061130 54 17 5.0 13.0 0.12 0.59 0.02 94 1014.1
20210622061021 54 62 4.0 13.0 0.12 0.59 0.02 94 1014.1
20210622060617 54 24 5.0 13.0 0.12 0.59 0.02 94 1014.2
20210622060528 54 70 4.0 13.0 0.12 0.59 0.02 94 1014.3
20210622060133 54 75 6.0 14.0 0.12 0.59 0.02 94 1014.3
20210622060029 54 56 5.0 14.0 0.12 0.67 0.02 94 1014.3
20210622055631 54 47 6.0 14.0 0.12 0.67 0.02 94 1014.3
20210622055521 54 50 6.0 14.0 0.12 0.67 0.02 94 1014.3
20210622055120 54 71 4.0 12.0 0.12 0.67 0.02 93 1014.3
20210622055031 54 60 3.0 12.0 0.12 0.67 0.02 93 1014.3
20210622054636 54 66 5.0 11.0 0.08 0.63 0.02 93 1014.3
20210622054531 54 50 4.0 12.0 0.08 0.63 0.02 93 1014.4
20210622054127 54 87 6.0 12.0 0.08 0.63 0.02 93 1014.4
20210622054017 54 63 4.0 14.0 0.08 0.63 0.02 93 1014.3
20210622053618 54 48 6.0 14.0 0.08 0.63 0.02 92 1014.3
20210622053528 54 73 5.0 14.0 0.08 0.63 0.02 92 1014.3
20210622053137 54 68 7.0 10.0 0.08 0.63 0.02 92 1014.3
20210622053013 54 3 5.0 10.0 0.08 0.63 0.02 92 1014.4
20210622052633 54 57 5.0 13.0 0.04 0.59 0.01 92 1014.3
20210622052523 54 119 4.0 13.0 0.04 0.59 0.01 91 1014.3
20210622052122 54 50 6.0 13.0 0.04 0.59 0.01 91 1014.2
20210622052034 55 85 6.0 13.0 0.04 0.59 0.01 91 1014.2
20210622051639 55 48 5.0 12.0 0.00 0.55 0.00 91 1014.2
20210622051515 55 64 6.0 12.0 0.00 0.55 0.00 91 1014.2
20210622051133 55 37 5.0 12.0 0.00 0.55 0.00 90 1014.2
20210622051023 55 46 5.0 12.0 0.00 0.55 0.00 90 1014.2
20210622050621 55 33 6.0 11.0 0.00 0.55 0.00 90 1014.1
20210622050531 55 69 5.0 11.0 0.00 0.55 0.00 90 1014.1
20210622050140 55 35 3.0 11.0 0.00 0.55 0.00 90 1014.1
20210622050016 55 35 3.0 12.0 0.00 0.71 0.00 89 1014.0
20210622045632 55 59 4.0 12.0 0.00 0.71 0.00 89 1014.0
20210622045523 55 65 5.0 12.0 0.00 0.71 0.00 89 1014.0
20210622045121 55 29 4.0 12.0 0.00 0.71 0.00 89 1014.0
20210622045033 55 33 5.0 12.0 0.00 0.71 0.00 88 1014.0
20210622044639 55 25 5.0 11.0 0.00 0.71 0.00 88 1014.1
20210622044515 55 86 5.0 11.0 0.00 0.71 0.00 88 1014.1
20210622044132 55 42 5.0 11.0 0.00 0.71 0.00 88 1014.1
20210622044022 55 44 5.0 11.0 0.00 0.71 0.00 88 1014.1
20210622043621 55 64 6.0 11.0 0.00 0.71 0.00 88 1014.2
20210622043531 55 29 5.0 11.0 0.00 0.71 0.00 88 1014.2
20210622043138 55 18 5.0 10.0 0.00 0.71 0.00 87 1014.2
20210622043014 55 30 4.0 10.0 0.00 0.71 0.00 87 1014.2
20210622042633 55 24 4.0 11.0 0.00 0.71 0.00 87 1014.2
20210622042523 55 23 4.0 11.0 0.00 0.71 0.00 87 1014.2
20210622042120 55 62 5.0 11.0 0.00 0.71 0.00 87 1014.2
20210622042031 55 358 6.0 11.0 0.00 0.71 0.00 87 1014.1
20210622041638 56 40 4.0 9.0 0.00 0.71 0.00 87 1014.1
20210622041513 56 112 3.0 8.0 0.00 0.71 0.00 87 1014.1
20210622041130 56 55 4.0 9.0 0.00 0.71 0.00 87 1014.1
20210622041020 56 62 3.0 9.0 0.00 0.71 0.00 87 1014.1
20210622040618 56 53 4.0 9.0 0.00 0.71 0.00 86 1014.1
20210622040528 56 78 4.0 8.0 0.00 0.71 0.00 86 1014.1
20210622040137 56 48 4.0 13.0 0.00 0.71 0.00 86 1014.1
20210622040019 56 44 3.0 13.0 0.00 0.75 0.00 86 1014.0
20210622035132 56 54 5.0 12.0 0.00 0.75 0.00 86 1013.8
20210622035026 56 75 5.0 12.0 0.00 0.75 0.00 86 1013.8
20210622034629 56 103 5.0 11.0 0.00 0.75 0.00 86 1013.6
20210622034529 56 64 4.0 11.0 0.00 0.75 0.00 86 1013.7
20210622034121 56 84 4.0 11.0 0.00 0.75 0.00 86 1013.5
20210622034015 56 68 6.0 11.0 0.00 0.75 0.00 86 1013.5
20210622033629 56 14 4.0 7.0 0.00 0.75 0.00 85 1013.6
20210622033523 56 52 4.0 9.0 0.00 0.75 0.00 85 1013.5
20210622033147 56 47 4.0 9.0 0.00 0.75 0.00 85 1013.6
20210622033027 56 38 4.0 12.0 0.00 0.75 0.00 85 1013.5
20210622032622 56 31 4.0 13.0 0.00 0.75 0.00 85 1013.5
20210622032516 56 33 4.0 13.0 0.00 0.75 0.00 85 1013.5
20210622032115 56 68 6.0 13.0 0.00 0.75 0.00 85 1013.4
20210622032025 56 42 6.0 13.0 0.00 0.75 0.00 85 1013.4
20210622031633 56 81 4.0 13.0 0.00 0.75 0.00 85 1013.3
20210622031529 56 38 5.0 13.0 0.00 0.75 0.00 85 1013.2
20210622031127 56 36 5.0 11.0 0.00 0.75 0.00 85 1013.1
20210622031018 56 58 4.0 11.0 0.00 0.75 0.00 85 1013.1
20210622030618 56 92 5.0 11.0 0.00 0.75 0.00 85 1013.1
20210622030528 56 27 6.0 11.0 0.00 0.75 0.00 85 1013.1
20210622030133 56 36 4.0 12.0 0.00 0.75 0.00 85 1013.1
20210622030029 56 42 4.0 12.0 0.00 0.94 0.00 85 1013.0
20210622025627 56 25 6.0 12.0 0.00 0.94 0.00 85 1013.1
20210622025517 56 66 7.0 12.0 0.00 0.94 0.00 85 1013.1
20210622025116 56 77 5.0 15.0 0.00 0.94 0.00 86 1013.1
20210622025026 56 60 4.0 15.0 0.00 0.94 0.00 86 1013.1
20210622024635 56 39 7.0 15.0 0.00 0.94 0.00 86 1013.1
20210622024532 56 98 5.0 15.0 0.00 0.94 0.00 86 1013.1
20210622024129 56 85 6.0 13.0 0.00 0.94 0.00 87 1013.0
20210622024020 56 76 3.0 13.0 0.00 0.94 0.00 87 1013.0
20210622023616 56 87 5.0 14.0 0.00 0.94 0.00 86 1012.9
20210622023527 56 65 5.0 14.0 0.00 0.94 0.00 87 1012.9
20210622023131 56 94 7.0 14.0 0.00 0.94 0.00 87 1012.8
20210622023027 56 58 5.0 11.0 0.00 0.94 0.00 87 1012.9
20210622022626 56 111 6.0 13.0 0.00 0.94 0.00 87 1012.9
20210622022517 56 46 5.0 13.0 0.00 0.94 0.00 87 1012.9
20210622022116 56 71 5.0 14.0 0.00 0.94 0.00 87 1012.9
20210622022027 56 40 4.0 14.0 0.00 0.94 0.00 87 1012.9
20210622021635 56 61 5.0 14.0 0.00 0.94 0.00 87 1012.9
20210622021530 56 49 4.0 14.0 0.00 0.94 0.00 87 1012.9
20210622021127 56 47 5.0 14.0 0.00 0.94 0.00 88 1013.0
20210622021017 56 41 5.0 14.0 0.00 0.94 0.00 88 1013.0
20210622020616 57 72 5.0 14.0 0.00 0.94 0.00 88 1012.9
20210622020526 57 58 7.0 14.0 0.00 0.94 0.00 88 1012.9
20210622020133 57 29 6.0 14.0 0.00 0.94 0.00 88 1012.9
20210622020029 57 63 5.0 12.0 0.00 1.06 0.00 88 1012.9
20210622015627 57 85 4.0 13.0 0.00 1.06 0.00 88 1013.0
20210622015517 57 92 5.0 13.0 0.00 1.06 0.00 88 1013.0
20210622015116 57 46 7.0 13.0 0.00 1.06 0.00 89 1012.9
20210622015026 57 79 6.0 13.0 0.00 1.06 0.00 89 1012.9
20210622014632 57 42 3.0 13.0 0.00 1.06 0.00 89 1013.0
20210622014527 57 104 3.0 13.0 0.00 1.06 0.00 89 1013.0
20210622014125 57 93 6.0 13.0 0.00 1.06 0.00 89 1013.0
20210622014015 57 53 5.0 13.0 0.00 1.06 0.00 89 1013.0
20210622013614 57 42 6.0 13.0 0.00 1.06 0.00 89 1013.1
20210622013524 57 72 6.0 13.0 0.00 1.06 0.00 89 1013.1
20210622013130 57 39 7.0 12.0 0.00 1.06 0.00 89 1013.1
20210622013026 57 358 7.0 12.0 0.00 1.06 0.00 89 1013.1
20210622012626 57 84 4.0 11.0 0.00 1.06 0.00 89 1013.1
20210622012517 57 42 4.0 13.0 0.00 1.06 0.00 89 1013.1
20210622012116 57 39 4.0 13.0 0.00 1.06 0.00 89 1013.2
20210622012026 57 82 4.0 13.0 0.00 1.06 0.00 89 1013.2
20210622011635 57 96 5.0 13.0 0.00 1.06 0.00 89 1013.2
20210622011532 57 39 5.0 13.0 0.00 1.06 0.00 89 1013.2
20210622011132 57 32 6.0 13.0 0.00 1.06 0.00 89 1013.2
20210622011021 57 42 6.0 13.0 0.00 1.06 0.00 89 1013.2
20210622010620 57 72 5.0 11.0 0.00 1.06 0.00 89 1013.2
20210622010530 57 22 5.0 11.0 0.00 1.06 0.00 89 1013.2
20210622010139 57 55 3.0 12.0 0.00 1.06 0.00 89 1013.1
20210622010015 57 5 4.0 12.0 0.00 1.06 0.00 89 1013.1
20210622005615 57 27 4.0 13.0 0.00 1.06 0.00 89 1013.1
20210622005525 57 73 5.0 13.0 0.00 1.06 0.00 88 1013.0
20210622005125 58 59 5.0 13.0 0.00 1.06 0.00 88 1013.0
20210622005019 58 39 6.0 13.0 0.00 1.06 0.00 88 1013.0
20210622004643 58 79 5.0 10.0 0.00 1.06 0.00 88 1013.0
20210622004523 58 50 5.0 10.0 0.00 1.06 0.00 88 1013.0
20210622004117 58 88 6.0 12.0 0.00 1.06 0.00 88 1012.9
20210622004034 58 85 6.0 12.0 0.00 1.06 0.00 88 1012.9
20210622003629 58 19 5.0 12.0 0.00 1.06 0.00 88 1012.8
20210622003523 58 58 6.0 12.0 0.00 1.06 0.00 88 1012.8
20210622003147 58 58 3.0 11.0 0.00 1.06 0.00 88 1012.8
20210622003027 58 23 4.0 11.0 0.00 1.06 0.00 87 1012.8
20210622002623 58 52 4.0 12.0 0.00 1.06 0.00 87 1012.9
20210622002517 58 69 3.0 12.0 0.00 1.06 0.00 87 1012.9
20210622002129 58 56 5.0 12.0 0.00 1.06 0.00 87 1012.9
20210622002023 58 40 5.0 12.0 0.00 1.06 0.00 87 1012.9
20210622001629 58 68 4.0 12.0 0.00 1.06 0.00 87 1012.9
20210622001526 58 85 5.0 12.0 0.00 1.06 0.00 87 1012.9
20210622001125 58 50 5.0 12.0 0.00 1.06 0.00 87 1012.9
20210622001016 58 22 6.0 12.0 0.00 1.06 0.00 87 1012.9
20210622000614 58 64 3.0 13.0 0.00 1.06 0.00 87 1012.9
20210622000524 58 46 3.0 13.0 0.00 1.06 0.00 87 1012.9
20210622000131 58 62 4.0 13.0 0.00 1.06 0.00 87 1012.9
20210622000026 58 78 6.0 13.0 0.00 1.10 0.00 87 1012.9
20210621235627 58 46 8.0 13.0 0.00 1.10 0.00 87 1012.9
20210621235517 58 62 5.0 13.0 0.00 1.10 0.00 87 1013.0
20210621235114 58 39 6.0 13.0 0.00 1.10 0.00 87 1013.0
20210621235025 58 82 6.0 13.0 0.00 1.10 0.00 87 1013.0
20210621234634 58 89 6.0 13.0 0.00 1.10 0.00 87 1013.0
20210621234530 58 50 5.0 13.0 0.00 1.10 0.00 87 1012.9
20210621234129 58 70 4.0 12.0 0.00 1.10 0.00 88 1013.0
20210621234019 58 34 4.0 12.0 0.00 1.10 0.00 88 1013.0
20210621233616 58 78 6.0 12.0 0.00 1.10 0.00 88 1013.0
20210621233526 58 32 6.0 12.0 0.00 1.10 0.00 88 1013.0
20210621233136 58 62 5.0 11.0 0.00 1.10 0.00 88 1013.0
20210621233030 58 40 4.0 11.0 0.00 1.10 0.00 88 1013.0
20210621232630 58 46 4.0 12.0 0.00 1.10 0.00 88 1012.9
20210621232521 58 51 3.0 12.0 0.00 1.10 0.00 88 1012.9
20210621232118 58 348 7.0 18.0 0.00 1.10 0.00 88 1012.8
20210621232029 58 71 6.0 18.0 0.00 1.10 0.00 87 1012.8
20210621231635 58 54 7.0 18.0 0.00 1.10 0.00 87 1012.8
20210621231531 58 39 5.0 13.0 0.00 1.10 0.00 88 1012.9
20210621231127 58 48 4.0 13.0 0.00 1.10 0.00 87 1012.8
20210621231017 58 44 5.0 13.0 0.00 1.10 0.00 87 1012.8
20210621230617 58 95 5.0 12.0 0.00 1.10 0.00 88 1012.8
20210621230527 58 64 5.0 12.0 0.00 1.10 0.00 88 1012.8
20210621230135 58 76 5.0 10.0 0.00 1.10 0.00 88 1012.8
20210621230033 58 52 4.0 10.0 0.00 1.10 0.00 88 1012.8
20210621225632 58 35 5.0 10.0 0.00 1.57 0.00 88 1012.9
20210621225522 58 33 5.0 10.0 0.00 1.57 0.00 88 1012.8
20210621225120 58 58 5.0 11.0 0.00 1.57 0.00 88 1012.9
20210621225032 58 58 5.0 11.0 0.00 1.57 0.00 88 1012.8
20210621224636 58 47 2.0 9.0 0.00 1.57 0.00 88 1012.9
20210621224533 58 73 1.0 9.0 0.00 1.57 0.00 88 1012.9
20210621224133 58 91 3.0 10.0 0.00 1.57 0.00 88 1012.7
20210621224023 58 41 3.0 10.0 0.00 1.57 0.00 88 1012.6
20210621223620 58 73 5.0 10.0 0.00 1.57 0.00 88 1012.5
20210621223531 58 48 4.0 10.0 0.00 1.57 0.00 88 1012.6
20210621223139 58 85 5.0 12.0 0.00 1.57 0.00 88 1012.5
20210621223015 58 35 5.0 12.0 0.00 1.57 0.00 88 1012.5
20210621222633 58 42 5.0 12.0 0.00 1.57 0.00 87 1012.5
20210621222523 58 57 4.0 12.0 0.00 1.57 0.00 87 1012.5
20210621222120 58 41 4.0 12.0 0.00 1.57 0.00 87 1012.7
20210621222032 58 60 5.0 12.0 0.00 1.57 0.00 87 1012.7
20210621221637 58 104 3.0 10.0 0.00 1.57 0.00 87 1012.8
20210621221534 58 84 4.0 13.0 0.00 1.57 0.00 87 1012.9
20210621221129 58 41 4.0 13.0 0.00 1.57 0.00 87 1012.7
20210621221019 58 95 3.0 13.0 0.00 1.57 0.00 87 1012.7
20210621220620 58 85 6.0 13.0 0.00 1.57 0.00 87 1012.7
20210621220530 58 58 5.0 13.0 0.00 1.57 0.00 87 1012.7
20210621220134 58 42 4.0 10.0 0.00 1.57 0.00 87 1012.7
20210621220030 59 68 3.0 10.0 0.00 2.01 0.31 87 1012.8
20210621215632 59 91 3.0 10.0 0.00 2.01 0.31 87 1013.0
20210621215522 59 131 3.0 10.0 0.00 2.01 0.31 87 1013.1
20210621215120 59 73 3.0 8.0 0.00 2.01 0.31 87 1013.1
20210621215014 59 86 2.0 11.0 0.00 2.01 0.31 87 1013.1
20210621214639 59 87 3.0 11.0 0.00 2.01 0.31 87 1013.1
20210621214519 59 91 4.0 11.0 0.00 2.01 0.31 87 1013.1
20210621214116 59 37 4.0 11.0 0.00 2.01 0.31 87 1013.1
20210621214030 59 81 3.0 11.0 0.00 2.01 0.31 87 1013.0
20210621213625 59 87 4.0 11.0 0.00 2.01 0.31 87 1013.0
20210621213519 59 97 4.0 11.0 0.00 2.01 0.31 87 1012.9
20210621213142 59 54 3.0 8.0 0.00 2.01 0.31 87 1013.0
20210621213022 59 51 3.0 8.0 0.00 2.01 0.31 87 1013.1
20210621212619 59 48 3.0 11.0 0.00 2.01 0.31 87 1013.1
20210621212533 59 91 2.0 11.0 0.00 2.01 0.31 87 1013.1
20210621212127 59 37 5.0 11.0 0.00 2.01 0.31 87 1013.1
20210621212022 59 42 5.0 11.0 0.00 2.01 0.31 87 1013.1
20210621211630 59 42 4.0 9.0 0.00 2.01 0.31 87 1013.0
20210621211526 59 55 3.0 9.0 0.00 2.01 0.31 87 1013.0
20210621211124 59 60 3.0 8.0 0.00 2.01 0.31 86 1013.2
20210621211015 59 38 4.0 8.0 0.00 2.01 0.31 86 1013.1
20210621210614 59 68 3.0 12.0 0.00 2.01 0.31 86 1013.1
20210621210525 59 79 2.0 12.0 0.00 2.01 0.31 86 1013.0
20210621210130 59 54 4.0 12.0 0.00 2.01 0.31 86 1013.0
20210621210026 59 77 6.0 12.0 0.00 2.13 0.31 86 1013.0
20210621205622 60 85 6.0 12.0 0.00 2.13 0.31 86 1012.9
20210621205532 60 42 6.0 12.0 0.00 2.13 0.31 86 1012.9
20210621205133 60 73 3.0 12.0 0.00 2.13 0.31 86 1012.9
20210621205021 60 56 4.0 12.0 0.00 2.13 0.31 86 1012.9
20210621204648 60 57 3.0 12.0 0.00 2.13 0.31 86 1012.8
20210621204524 60 72 3.0 13.0 0.00 2.13 0.31 86 1012.7
20210621204124 60 80 4.0 13.0 0.00 2.13 0.31 86 1012.5
20210621204014 60 56 5.0 13.0 0.00 2.13 0.31 86 1012.4
20210621203631 60 25 6.0 15.0 0.00 2.13 0.31 86 1012.5
20210621203521 60 35 7.0 15.0 0.00 2.13 0.31 86 1012.5
20210621203147 60 20 8.0 15.0 0.00 2.13 0.31 86 1012.5
20210621203024 60 86 7.0 14.0 0.00 2.13 0.31 86 1012.4
20210621202624 60 56 7.0 14.0 0.00 2.13 0.31 86 1012.3
20210621202513 60 113 7.0 14.0 0.00 2.13 0.31 86 1012.2
20210621202133 60 65 5.0 12.0 0.00 2.13 0.31 86 1012.2
20210621202022 60 73 5.0 12.0 0.00 2.13 0.31 86 1012.2
20210621201629 60 54 5.0 12.0 0.00 2.13 0.31 86 1012.1
20210621201525 60 19 5.0 12.0 0.00 2.13 0.31 86 1012.1
20210621201124 60 29 6.0 12.0 0.00 2.13 0.31 87 1012.0
20210621201034 60 54 5.0 12.0 0.00 2.13 0.31 87 1012.0
20210621200632 61 150 5.0 14.0 0.00 2.13 0.31 86 1012.0
20210621200522 61 84 5.0 14.0 0.00 2.13 0.31 87 1011.9
20210621200129 61 53 5.0 14.0 0.00 2.13 0.31 87 1011.9
20210621200024 61 34 6.0 14.0 0.00 2.17 0.31 86 1011.9
20210621195623 61 54 7.0 12.0 0.00 2.17 0.31 87 1012.0
20210621195533 61 79 6.0 12.0 0.00 2.17 0.31 87 1012.0
20210621195132 61 77 3.0 9.0 0.00 2.17 0.31 87 1012.0
20210621195023 61 46 3.0 9.0 0.00 2.17 0.31 87 1012.0
20210621194629 61 50 4.0 11.0 0.00 2.17 0.31 86 1012.0
20210621194525 61 43 4.0 11.0 0.00 2.17 0.31 86 1012.0
20210621194124 61 31 4.0 11.0 0.00 2.17 0.31 86 1012.0
20210621194014 61 89 5.0 12.0 0.00 2.17 0.31 86 1012.0
20210621193615 62 24 3.0 12.0 0.00 2.17 0.31 85 1011.9
20210621193525 62 52 4.0 12.0 0.00 2.17 0.31 85 1011.9
20210621193132 62 48 5.0 10.0 0.00 2.17 0.31 85 1011.7
20210621193028 62 358 4.0 10.0 0.00 2.17 0.31 85 1011.7
20210621192627 62 55 3.0 11.0 0.00 2.17 0.31 84 1011.7
20210621192517 62 54 4.0 11.0 0.00 2.17 0.31 84 1011.7
20210621192116 62 71 4.0 12.0 0.00 2.17 0.31 84 1011.6
20210621192027 62 55 4.0 12.0 0.00 2.17 0.31 84 1011.6
20210621191637 62 39 5.0 12.0 0.00 2.17 0.31 83 1011.5
20210621191532 62 67 6.0 12.0 0.00 2.17 0.31 83 1011.5
20210621191131 63 13 6.0 10.0 0.00 2.17 0.31 83 1011.5
20210621191021 63 27 5.0 9.0 0.00 2.17 0.31 83 1011.5
20210621190621 63 37 4.0 11.0 0.00 2.17 0.31 84 1011.4
20210621190530 63 38 4.0 11.0 0.00 2.17 0.31 84 1011.3
20210621190139 63 38 3.0 11.0 0.00 2.17 0.31 83 1011.2
20210621190015 63 29 5.0 11.0 0.00 2.17 0.31 83 1011.2
20210621185634 63 60 5.0 9.0 0.00 2.17 0.31 83 1011.2
20210621185524 63 15 4.0 9.0 0.00 2.17 0.31 83 1011.2
20210621185122 63 77 5.0 9.0 0.00 2.17 0.31 83 1011.2
20210621185016 63 39 5.0 9.0 0.00 2.17 0.31 83 1011.2
20210621184642 63 35 4.0 9.0 0.00 2.17 0.31 83 1011.2
20210621184522 63 48 4.0 9.0 0.00 2.17 0.31 83 1011.1
20210621184118 63 27 3.0 9.0 0.00 2.17 0.31 82 1011.2
20210621184032 64 44 3.0 9.0 0.00 2.17 0.31 82 1011.2
20210621183626 64 57 4.0 9.0 0.00 2.17 0.31 82 1011.1
20210621183520 64 43 4.0 9.0 0.00 2.17 0.31 82 1011.0
20210621183144 64 54 4.0 7.0 0.00 2.17 0.31 82 1010.9
20210621183023 64 37 5.0 7.0 0.00 2.17 0.31 82 1010.9
20210621182619 64 85 3.0 8.0 0.00 2.17 0.31 82 1010.9
20210621182532 64 6 3.0 8.0 0.00 2.17 0.31 82 1010.8
20210621182126 64 68 3.0 6.0 0.00 2.17 0.31 82 1010.9
20210621182020 64 71 4.0 8.0 0.00 2.17 0.31 82 1010.9
20210621181643 64 58 3.0 8.0 0.00 2.17 0.31 82 1010.9
20210621181523 64 58 3.0 10.0 0.00 2.17 0.31 82 1010.9
20210621181123 64 48 2.0 10.0 0.00 2.17 0.31 82 1010.9
20210621181014 64 73 3.0 10.0 0.00 2.17 0.31 82 1010.9
20210621180634 64 50 3.0 7.0 0.00 2.17 0.31 82 1010.9
20210621180524 64 42 4.0 7.0 0.00 2.17 0.31 82 1011.0
20210621180130 64 38 3.0 8.0 0.00 2.17 0.31 82 1011.1
20210621180025 64 82 3.0 8.0 0.00 2.17 0.31 82 1011.1
20210621175625 64 50 3.0 6.0 0.00 2.17 0.31 81 1011.1
20210621175515 64 50 3.0 6.0 0.00 2.17 0.31 82 1011.2
20210621175133 64 52 4.0 7.0 0.00 2.17 0.31 81 1011.2
20210621175023 64 64 3.0 7.0 0.00 2.17 0.31 81 1011.2
20210621174628 64 48 4.0 7.0 0.00 2.17 0.31 81 1011.0
20210621174525 64 71 4.0 7.0 0.00 2.17 0.31 81 1010.9
20210621174126 64 52 2.0 9.0 0.00 2.17 0.31 81 1010.8
20210621174017 64 46 2.0 9.0 0.00 2.17 0.31 81 1010.8
20210621173615 64 46 4.0 9.0 0.00 2.17 0.31 80 1010.7
20210621173525 64 17 4.0 9.0 0.00 2.17 0.31 80 1010.8
20210621173136 64 36 5.0 9.0 0.00 2.17 0.31 80 1010.7
20210621173029 64 39 5.0 10.0 0.00 2.17 0.31 80 1010.7
20210621172629 64 40 3.0 10.0 0.00 2.17 0.31 81 1010.6
20210621172519 64 53 3.0 10.0 0.00 2.17 0.31 81 1010.6
20210621172118 65 71 1.0 8.0 0.00 2.17 0.31 81 1010.5
20210621172026 65 73 2.0 8.0 0.00 2.17 0.31 80 1010.5
20210621171631 65 50 3.0 12.0 0.00 2.17 0.31 80 1010.4
20210621171527 65 27 4.0 12.0 0.00 2.17 0.31 80 1010.4
20210621171126 65 42 4.0 13.0 0.00 2.17 0.31 79 1010.5
20210621171017 65 62 5.0 13.0 0.00 2.17 0.31 78 1010.5
20210621170618 66 58 5.0 13.0 0.00 2.17 0.31 78 1010.5
20210621170528 66 87 5.0 13.0 0.00 2.17 0.31 79 1010.5
20210621170134 66 68 3.0 11.0 0.00 2.17 0.31 80 1010.4
20210621170029 66 116 5.0 11.0 0.00 2.17 0.31 80 1010.5
20210621165627 66 25 5.0 11.0 0.00 2.17 0.31 80 1010.6
20210621165517 66 85 3.0 11.0 0.00 2.17 0.31 80 1010.7
20210621165116 66 41 3.0 10.0 0.00 2.17 0.31 81 1010.6
20210621165027 65 64 2.0 10.0 0.00 2.17 0.31 81 1010.6
20210621164636 65 43 4.0 10.0 0.00 2.17 0.31 80 1010.5
20210621164532 65 64 5.0 12.0 0.00 2.17 0.31 80 1010.5
20210621164131 65 10 4.0 12.0 0.00 2.17 0.31 80 1010.5
20210621164022 65 68 5.0 12.0 0.00 2.17 0.31 80 1010.5
20210621163622 65 40 5.0 12.0 0.00 2.17 0.31 81 1010.4
20210621163532 65 65 5.0 12.0 0.00 2.17 0.31 81 1010.4
20210621163141 65 19 6.0 12.0 0.00 2.17 0.31 81 1010.3
20210621163017 65 58 4.0 11.0 0.00 2.17 0.31 81 1010.4
20210621162615 65 34 6.0 11.0 0.00 2.17 0.31 80 1010.5
20210621162525 65 41 6.0 11.0 0.00 2.17 0.31 81 1010.6
20210621162125 66 50 3.0 8.0 0.00 2.17 0.31 81 1010.7
20210621162015 66 25 3.0 8.0 0.00 2.17 0.31 81 1010.8
20210621161643 66 56 3.0 6.0 0.00 2.17 0.31 83 1010.7
20210621161519 66 98 2.0 6.0 0.00 2.17 0.31 83 1010.7
20210621161119 65 59 4.0 8.0 0.00 2.17 0.31 82 1010.7
20210621161029 65 55 4.0 8.0 0.00 2.17 0.31 82 1010.7
20210621160627 65 60 4.0 9.0 0.00 2.17 0.31 82 1010.6
20210621160517 65 57 4.0 9.0 0.00 2.17 0.31 83 1010.6
20210621160144 65 53 3.0 9.0 0.00 2.17 0.31 82 1010.6
20210621160020 65 78 4.0 9.0 0.00 2.17 0.31 81 1010.6
20210621155621 65 64 2.0 9.0 0.00 2.17 0.31 83 1010.6